Regional Weather Roundup
Issued by NWS

Home | Current Version | Previous Version | Graphics & Text | Print | Product List | Glossary On
Versions: 1 2 3 4 5 6 7 8 9 10 11 12 13 14 15 16 17 18 19 20 21 22 23 24 25 26 27 28 29 30 31 32 33 34 35 36 37 38 39 40 41 42 43 44 45 46 47 48 49 50
686
ASUS43 KOAX 210210
RWRNE

WEATHER ROUNDUP FOR NEBRASKA
NATIONAL WEATHER SERVICE OMAHA NE
800 PM CST FRI JAN 20 2017

NOTES: SATELLITE DATA IS BEING USED TO AUGMENT CLOUD COVER ABOVE
       12000 FEET.
       "FAIR" INDICATES FEW OR NO CLOUDS BELOW 12,000 FEET WITH NO
       SIGNIFICANT WEATHER AND/OR OBSTRUCTIONS TO VISIBILITY.

  * THESE STATIONS DO NOT REPORT WEATHER SUCH AS RAIN...SNOW OR FOG.

NEZ001>004-019>022-054>056-210300-
NEBRASKA PANHANDLE

CITY           SKY/WX    TMP DP  RH WIND       PRES   REMARKS
SCOTTSBLUFF    CLOUDY    36  32  85 W10       29.41S WCI  28
ALLIANCE       CLOUDY    35  33  92 W12       29.38S WCI  27
CHADRON        CLOUDY    36  32  85 W17       29.38S WCI  26
KIMBALL        CLOUDY    36  27  69 NW12G17   29.41F WCI  28
SIDNEY         CLOUDY    35  32  88 NW13      29.42R WCI  26
$$

NEZ057>060-069>072-079>082-210300-
SOUTHWEST NEBRASKA

CITY           SKY/WX    TMP DP  RH WIND       PRES   REMARKS
NORTH PLATTE   CLOUDY    36  32  85 CALM      29.38R
IMPERIAL       CLOUDY    39  32  76 NW8       29.40R WCI  33
LEXINGTON      CLOUDY    36  34  92 S7        29.40R FOG     WCI  31
MCCOOK         CLOUDY    36  34  92 SW8       29.40R WCI  30
OGALLALA       CLOUDY    35  32  87 NW6       29.39R WCI  30
$$

NEZ005>010-023>029-035>040-094-210300-
NORTH CENTRAL NEBRASKA

CITY           SKY/WX    TMP DP  RH WIND       PRES   REMARKS
VALENTINE      CLOUDY    35  28  75 SW7       29.35S WCI  29
AINSWORTH      CLOUDY    33  31  90 SW6       29.36R WCI  28
BROKEN BOW     MOCLDY    35  34  96 SE3       29.37R FOG
O`NEILL        FOG       40  40 100 S6        29.38S VSB 1
ORD            FOG       38  37  97 S3        29.38R VSB 1/4
THEDFORD       CLOUDY    34  32  92 CALM      29.37S
$$

NEZ041-046>049-061>064-073>077-083>087-210300-
SOUTH CENTRAL NEBRASKA

CITY           SKY/WX    TMP DP  RH WIND       PRES   REMARKS
GRAND ISLAND   CLOUDY    39  39 100 S6        29.41F FOG     WCI  35
AURORA         CLOUDY    39  39 100 S6        29.41S WCI  35
HASTINGS       FOG       39  39 100 S3        29.42R VSB 1/4
HEBRON         LGT RAIN  41  41 100 CALM      29.43S VSB 1/2
HOLDREGE       CLOUDY    37  36  97 SW6       29.40F FOG     WCI  32
KEARNEY *      CLOUDY    37 -11  12 S5        29.41S WCI  34
YORK           FOG       41  41 100 CALM      29.42S VSB 1/4
$$

NEZ011>018-030>034-042>045-210300-
NORTHEAST NEBRASKA

CITY           SKY/WX    TMP DP  RH WIND       PRES   REMARKS
NORFOLK        LGT RAIN  38  38 100 SE7       29.40S VSB 1/2 WCI  33
ALBION         DRZL/FOG N/A N/A N/A SE6       29.40S VSB 1
BLAIR          CLOUDY    41  40  98 SE13      29.43S FOG
FREMONT        FOG       40  40 100 E6        29.44S VSB 3/4
TEKAMAH        CLOUDY    38  37  97 CALM      29.45S
WAYNE          FOG       38  38  99 SE8       29.42S VSB 1/2 WCI  33
$$

NEZ050>053-065>068-078-088>093-210300-
SOUTHEAST NEBRASKA

CITY           SKY/WX    TMP DP  RH WIND       PRES   REMARKS
LINCOLN        LGT RAIN  43  42  97 SE8       29.44S FOG
OMAHA EPPLEY   DRIZZLE   41  38  89 SE9       29.45F
BEATRICE       DRZL/FOG  44  44 100 SE5       29.43F VSB 3/4
FALLS CITY     LGT RAIN  44  44 100 SE6       29.45S VSB 1/2
NEBRASKA CITY  FOG       42  42 100 SE6       29.44F VSB 1/4
PLATTSMOUTH    FOG       41  40  93 SE7       29.45S VSB 1/2
$$

NEZ044-045-051>053-067-210300-
OMAHA AREA

CITY           SKY/WX    TMP DP  RH WIND       PRES   REMARKS
OMAHA EPPLEY   DRIZZLE   41  38  89 SE9       29.45F
BLAIR          CLOUDY    41  40  98 SE13      29.43S FOG
FREMONT        FOG       40  40 100 E6        29.44S VSB 3/4
MILLARD        CLOUDY    44  42  95 SE7       29.45R
OFFUTT AFB     CLOUDY    41  41 100 E6        29.45R
PLATTSMOUTH    FOG       41  40  93 SE7       29.45S VSB 1/2
WAHOO          FOG       40  39  97 SE6       29.44R VSB 1/2
$$




USA.gov is the U.S. government's official web portal to all federal, state and local government web resources and services.